Location: Goudex
(43.3760°N, 0.9543°E)
Time: 11:38:39
(UTC+00:00)

NOSS 3-4 (C) - Pass Details

Date: 20 November 2019
Orbit: 908 x 1304 km, 63.4° (Epoch: 02 December)

Event Time Altitude Azimuth Distance (km) Brightness Sun altitude
Exits shadow 04:19:40 30° 342° (NNW) 1,897 4.8 -28.1°
Maximum altitude 04:23:16 57° 48° (NE) 1,338 4.3 -27.4°
Drops below altitude 10° 04:30:47 10° 126° (SE) 3,184 6.9 -26.0°
Sets 04:33:44 0° 130° (SE) 4,192 7.6 -25.5°
